Location: Peebles
(55.6412°N, 3.1714°W)
Time: 13:42:49
(UTC+01:00)

FLOCK 4S 26 - Pass Details

Date: 06 July 2022
Orbit: 498 x 512 km, 97.4° (Epoch: 17 August)

Event Time Altitude Azimuth Distance (km) Brightness Sun altitude
Rises 23:29:42 0° 220° (SW) 2,635 ? -8.4°
Reaches altitude 10° 23:33:15 10° 256° (WSW) 1,754 ? -8.7°
Maximum altitude 23:34:27 11° 275° (W) 1,679 ? -8.7°
Drops below altitude 10° 23:35:39 10° 294° (WNW) 1,758 ? -8.8°
Sets 23:39:14 0° 330° (NNW) 2,650 ? -9.0°
